EST,Max TemperatureF,Mean TemperatureF,Min TemperatureF,Max Dew PointF,MeanDew PointF,Min DewpointF,Max Humidity, Mean Humidity, Min Humidity, Max Sea Level PressureIn, Mean Sea Level PressureIn, Min Sea Level PressureIn, Max VisibilityMiles, Mean VisibilityMiles, Min VisibilityMiles, Max Wind SpeedMPH, Mean Wind SpeedMPH, Max Gust SpeedMPH,PrecipitationIn, CloudCover, Events, WindDirDegrees
2012-12-1,29,24,19,25,19,15,91,81,71,30.61,30.53,30.42,10,7,2,9,1,10,T,8,Snow,72
2012-12-2,46,37,28,45,37,25,100,88,76,30.43,30.17,30.00,9,4,0,14,6,20,0.18,8,Fog-Rain,213
2012-12-3,50,39,28,45,39,28,100,86,71,30.29,30.19,30.02,10,5,0,14,3,20,0.00,7,Fog,38
2012-12-4,55,41,26,52,38,26,100,93,86,30.28,30.15,29.86,8,4,0,15,3,22,0.06,8,Fog-Rain,220
2012-12-5,53,40,27,52,31,13,93,70,47,30.28,30.04,29.85,10,9,4,25,10,36,0.12,5,Rain,288
2012-12-6,34,28,21,22,17,14,96,74,51,30.43,30.34,30.27,10,10,10,14,3,20,0.00,0,,331
2012-12-7,37,29,20,34,28,19,100,85,69,30.25,30.11,30.05,10,6,1,15,2,18,0.11,6,Rain-Snow,215
2012-12-8,41,37,32,40,36,32,100,96,92,30.04,29.93,29.83,9,2,0,10,3,14,0.04,8,Fog-Rain,208
2012-12-9,40,34,27,37,31,27,100,85,70,30.30,30.16,30.00,10,7,1,10,4,14,0.07,4,Rain,28
2012-12-10,49,40,31,49,37,30,100,91,82,30.06,29.74,29.50,10,4,2,18,3,25,0.94,8,Rain,207
2012-12-11,41,36,30,37,25,18,100,77,54,30.21,29.94,29.64,10,10,10,17,6,21,T,7,Rain,265
2012-12-12,41,31,20,26,22,18,92,66,40,30.43,30.35,30.22,10,10,9,9,2,14,0.00,4,,224
2012-12-13,39,29,18,27,21,16,92,71,50,30.50,30.42,30.30,10,9,6,9,1,12,0.00,1,,177
2012-12-14,42,32,22,28,25,20,96,75,53,30.27,30.20,30.13,10,9,4,14,5,17,0.00,4,,211
2012-12-15,39,31,22,26,18,9,77,64,50,30.39,30.32,30.23,10,10,10,13,7,16,0.00,4,,61
2012-12-16,31,27,22,29,23,15,92,83,74,30.28,30.14,30.01,10,6,1,7,1,9,0.05,8,Snow,60
2012-12-17,36,34,31,34,32,30,100,95,89,30.01,29.91,29.75,10,5,2,9,3,15,0.17,8,,357
2012-12-18,41,38,34,40,38,33,100,96,92,29.71,29.51,29.44,10,3,0,10,3,13,0.51,8,Fog-Rain,343
2012-12-19,43,36,29,33,28,23,100,77,53,30.13,29.83,29.57,10,10,10,20,6,25,0.00,5,,317
2012-12-20,35,29,22,30,25,19,100,82,64,30.26,30.09,29.88,10,8,1,10,2,14,0.08,4,Snow,30
2012-12-21,49,40,31,45,33,28,100,88,75,29.86,29.35,28.93,10,7,1,28,10,37,0.41,8,Rain-Snow,122
2012-12-22,36,31,25,31,18,11,82,64,46,29.76,29.45,29.16,10,10,9,22,11,30,T,7,Rain-Snow,258
2012-12-23,34,25,15,24,18,11,88,71,53,29.87,29.83,29.78,10,10,6,18,6,24,T,4,Snow,185
2012-12-24,34,28,22,21,15,11,84,65,45,30.12,30.04,29.89,10,10,10,20,4,28,T,3,,339
2012-12-25,27,23,18,21,19,12,88,78,68,30.37,30.13,29.99,10,6,1,13,5,15,0.02,8,Snow,59
2012-12-26,27,21,14,25,16,10,92,78,63,30.42,30.21,29.88,10,8,0,17,6,21,0.08,5,Fog-Snow,21
2012-12-27,29,27,24,27,24,16,100,84,68,29.87,29.66,29.56,10,2,0,21,11,26,0.30,8,Fog-Snow,11
2012-12-28,33,23,13,25,17,10,92,78,63,30.08,30.02,29.86,10,7,0,12,2,15,0.00,4,Fog,350
2012-12-29,26,18,9,23,18,7,96,90,83,30.07,29.83,29.58,10,2,0,12,3,15,0.24,8,Fog-Snow,38
2012-12-30,26,18,10,20,12,4,96,71,45,30.17,29.85,29.60,10,7,1,18,6,25,0.01,5,Snow,15
2012-12-31,31,21,10,23,17,7,92,78,63,30.15,29.97,29.76,10,9,4,13,5,18,0.00,8,,193